Location: Newark
(36.1358°N, 115.1208°W)
Time: 11:20:42
(UTC+00:00)

S-56A Canister/Altair - Pass Details

Date: 22 February 2020
Orbit: 634 x 2498 km, 38.9° (Epoch: 06 April)

Event Time Altitude Azimuth Distance (km) Brightness Sun altitude
Rises 02:02:25 0° 289° (WNW) 5,805 13.3 -7.8°
Reaches altitude 10° 02:07:13 10° 280° (W) 4,542 12.9 -8.8°
Maximum altitude 02:16:38 28° 229° (SW) 2,716 11.0 -10.6°
Drops below altitude 10° 02:23:37 10° 173° (S) 3,294 10.7 -12.1°
Sets 02:26:31 0° 161° (SSE) 4,003 11.0 -12.6°
